sat.trackr.live / text

‹ back to catalog

IRNSS-1F

NORAD 41384 · 2016-015A

PAYLOAD ACTIVE UNKNOWN

§ Identity

Operator
Country
IND
Launch date
2016-03-10
Launch site
SRILR
Launch vehicle
Mass (kg)
RCS (m²)
0.00

External: N2YO · Heavens-Above · Gunter

§ Orbital elements

Epoch: 2026-05-25T02:11:09.273984Z

Period
1,436.11 min
Inclination
5.2913°
Eccentricity
0.0016882
Mean motion
1.00271190 rev/d
Perigee alt
35,715.6 km
Apogee alt
35,857.9 km
Semi-major
42,164.9 km
B*
0.0000e+0
RAAN
97.3049°
Arg perigee
187.4827°
Mean anomaly
23.1073°
Rev number
3,743

§ Raw data

IRNSS-1F1 41384U 16015A   26145.09107956  .00000158  00000+0  00000+0 0  99902 41384   5.2913  97.3049 0016882 187.4827  23.1073  1.00271190 37430

JSON: /api/v1/satellites/41384 · /tle

For live sub-satellite position, see the globe view (requires WebGL).

§ Visibility from observer

Set your observer location to see the next 7 days of passes ≥ 10°. The values pass through the URL so the page stays shareable.

No JS? Fill the form by hand. The geolocation button needs JavaScript.